Regional Weather Roundup
Issued by NWS

Home | Current Version | Previous Version | Text Only | Print | Product List | Glossary On
Versions: 1 2 3 4 5 6 7 8 9 10 11 12 13 14 15 16 17 18 19 20 21 22 23 24 25 26 27 28 29 30 31 32 33 34 35 36 37 38 39 40 41 42 43 44 45 46 47 48 49 50
335
ASUS43 KIND 231709
RWRIN

WEATHER ROUNDUP FOR INDIANA
NATIONAL WEATHER SERVICE INDIANAPOLIS IN
100 PM EDT SAT JUN 23 2018

NOTE: "FAIR" INDICATES FEW OR NO CLOUDS BELOW 12,000 FEET WITH NO
SIGNIFICANT WEATHER AND/OR OBSTRUCTIONS TO VISIBILITY.

* - STATION DOES NOT REPORT WEATHER SUCH AS PRECIPITATION OR FOG.

+ - STATION NOT QUALITY CONTROLLED BY THE NATIONAL WEATHER SERVICE.
    USE DATA WITH CAUTION...ESPECIALLY DEWPOINT AND RELATIVE
    HUMIDITY OBSERVATIONS.

INZ001>003-010>013-019-020-231800-
NORTHWEST INDIANA

CITY           SKY/WX    TMP DP  RH WIND       PRES   REMARKS
GARY /AIRPORT/ CLOUDY    68  57  68 CALM      29.77F
KNOX *+        CLOUDY    68  61  77 W5        29.75F
LA PORTE +     CLOUDY    69  60  74 NW5       29.76S
MICHIGAN CITY+ CLOUDY    68  59  73 NW6       29.76F
MONTICELLO +   CLOUDY    66  65  94 W6        29.76F
RENSSELAER +   CLOUDY    68  59  73 NW3       29.76F
VALPARAISO     CLOUDY    71  60  68 NW3       29.76F

$$

LMZ046-743>745-231800-
SOUTHERN LAKE MICHIGAN

STATION/POSITION TIME  TEMP    WIND        PRES    WAVE
                       AIR SEA DIR/SP/G            HT
                 (UTC) (F)     (DEG/KT/KT) (MB)    (FT)
BURNS HARBOR     1640   62     290/  1/  4 1008.5F
MICHIGAN CITY    1640   59     230/  6/  7   N/A
5NW MICH CITY    1700   59 58  240/  6/  8   N/A     2

$$

INZ004-005-014>016-021>024-231800-
NORTH CENTRAL INDIANA

CITY           SKY/WX    TMP DP  RH WIND       PRES   REMARKS
ELKHART        CLOUDY    68  63  83 W5        29.75S
GOSHEN         CLOUDY    70  66  87 W7        29.74F
LOGANSPORT +   CLOUDY    64  63  94 W8        29.78F
PERU/GRISSOM   CLOUDY    66  66 100 SW10      29.77S
ROCHESTER +    FOG       68  66  94 W6        29.77S VSB 1
SOUTH BEND     CLOUDY    69  60  73 NW6       29.74F
WARSAW +       LGT RAIN  68  64  88 W7        29.75F

$$

INZ006>009-017-018-025>027-231800-
NORTHEAST INDIANA

CITY           SKY/WX    TMP DP  RH WIND       PRES   REMARKS
AUBURN +       PTSUNNY   70  66  88 W8        29.76R
FORT WAYNE     CLOUDY    71  68  90 SW16      29.76S
HUNTINGTON +   CLOUDY    68  66  93 W7        29.77S
KENDALLVILLE + CLOUDY    69  64  83 W8        29.76R

$$

INZ028-029-035-036-043>045-051>053-231800-
WEST CENTRAL INDIANA

CITY           SKY/WX    TMP DP  RH WIND       PRES   REMARKS
CRAWFORDSVL +  CLOUDY    66  66  98 SW7       29.79S
GREENCASTLE +  CLOUDY    70  61  73 CALM      29.81S
LAFAYETTE      PTSUNNY   70  64  81 SW7       29.77S
TERRE HAUTE    CLOUDY    72  64  76 SW9       29.80S

$$

INZ030>032-037>040-046>048-054>057-064-065-231800-
CENTRAL INDIANA

CITY           SKY/WX    TMP DP  RH WIND       PRES   REMARKS
ANDERSON         N/A     73  64  73 W12       29.79F
COLUMBUS       CLOUDY    73  59  60 W9        29.81R
FISHERS *+     CLOUDY    70  64  83 W5        29.79
FRANKFORT +    CLOUDY   N/A N/A N/A W7        29.80S
GREENWOOD *+   CLOUDY    72  63  72 W7        29.81S
INDIANAPOLIS   CLOUDY    72  63  73 W6        29.79S
-EAGLE CREEK   CLOUDY    72  62  71 W7        29.79S
KOKOMO +       CLOUDY    68  64  87 W10       29.78F
MARION +       CLOUDY    67  64  89 CALM      29.79S
MT COMFORT *+  PTSUNNY   72  66  83 W8G16     29.80S
SHELBYVILLE    CLOUDY    74  63  68 SW10      29.79R
ZIONSVILLE +   CLOUDY    71  64  78 W8        29.79F

$$

INZ033-034-041-042-049-050-058-059-231800-
EAST CENTRAL INDIANA

CITY           SKY/WX    TMP DP  RH WIND       PRES   REMARKS
MUNCIE         CLOUDY    74  64  71 W10       29.78S
RICHMOND +     FAIR      72  66  83 W12       29.81S

$$

INZ060-061-067>069-081>083-085>088-231800-
SOUTHWEST INDIANA

CITY           SKY/WX    TMP DP  RH WIND       PRES   REMARKS
EVANSVILLE     PTSUNNY   76  67  73 SW14      29.84R
HUNTINGBURG +  PTSUNNY   75  67  76 SW8       29.83S
WASHINGTON +   CLOUDY    74  61  62 SW8       29.81F

$$

INZ062-063-066-070>080-084-089>092-231800-
SOUTH CENTRAL AND SOUTHEAST INDIANA

CITY           SKY/WX    TMP DP  RH WIND       PRES   REMARKS
BATESVILLE +   CLOUDY    73  64  73 VRB6      29.81S
BEDFORD +      CLOUDY    73  63  68 SW7       29.82R
BLOOMINGTON    CLOUDY    72  64  76 VRB5      29.81S
FRENCH LICK *+ CLOUDY    73  57  56 CALM      29.83F
MADISON *+     CLOUDY    72  64  78 W5        29.85S
NORTH VERNON + CLOUDY    72  64  78 W6        29.81

$$





USA.gov is the U.S. government's official web portal to all federal, state and local government web resources and services.